K9UO Weather Reports


Display with metric or nautical units.
time (UTC)temp
F
wind
direction
speed
MPH
gust
MPH
rain 1hr
in
rain 24hr
in
rain mn
in
humidity
%
barometer
mb
20260505210030 51 5 3.0 11.0 0.03 0.27 0.27 1 1007.3
20260505204525 52 355 7.0 9.0 0.02 0.26 0.26 1 1007.1
20260505203029 52 14 1.0 3.0 0.03 0.25 0.25 1 1006.8
20260505201518 52 24 0.0 2.0 0.06 0.25 0.25 1 1006.8
20260505200012 52 22 0.0 2.0 0.06 0.24 0.24 1 1006.7
20260505194507 52 18 0.0 4.0 0.08 0.24 0.24 1 1007.3
20260505193003 52 9 1.0 2.0 0.06 0.22 0.22 1 1007.6
20260505191608 52 13 2.0 6.0 0.03 0.19 0.19 1 1007.7
20260505184550 51 5 1.0 5.0 0.00 0.16 0.16 1 1007.5
20260505183109 51 5 3.0 5.0 0.00 0.16 0.16 1 1007.3
20260505181541 50 5 2.0 5.0 0.00 0.16 0.16 1 1007.5
20260505180038 50 351 2.0 4.0 0.00 0.16 0.16 1 1007.8
20260505174537 50 355 2.0 5.0 0.00 0.16 0.16 1 1007.7
20260505173037 51 5 3.0 5.0 0.00 0.16 0.16 1 1007.5
20260505171536 51 16 5.0 8.0 0.00 0.16 0.16 1 1007.8
20260505170022 53 355 5.0 8.0 0.00 0.16 0.16 1 1007.6
20260505164515 54 16 5.0 9.0 0.01 0.16 0.16 1 1007.7
20260505163011 58 234 4.0 7.0 0.01 0.16 0.16 1 1007.5
20260505161506 57 250 2.0 8.0 0.01 0.16 0.16 1 1007.7
20260505153053 56 236 6.0 13.0 0.00 0.15 0.15 1 1007.8
20260505151548 56 229 6.0 13.0 0.00 0.15 0.15 1 1007.7
20260505124506 55 226 8.0 12.0 0.00 0.15 0.15 1 1005.6
20260505123005 55 205 7.0 11.0 0.00 0.15 0.15 1 1005.8
20260505121504 54 221 6.0 11.0 0.00 0.15 0.15 1 1005.7
20260505120117 54 227 8.0 14.0 0.00 0.15 0.15 1 1006.0
20260505114557 54 226 7.0 11.0 0.00 0.15 0.15 1 1006.0
20260505113051 54 215 5.0 11.0 0.00 0.15 0.15 1 1005.7
20260505111547 54 214 6.0 10.0 0.00 0.15 0.15 1 1005.4
20260505101529 54 213 4.0 11.0 0.00 0.15 0.15 1 1004.2
20260505100026 54 199 4.0 13.0 0.01 0.15 0.15 1 1003.9
20260505094520 54 200 7.0 14.0 0.01 0.15 0.15 1 1003.8
20260505093015 54 207 6.0 10.0 0.01 0.15 0.15 1 1003.1
20260505091522 54 195 6.0 15.0 0.03 0.15 0.15 1 1003.5
20260505090013 55 197 6.0 14.0 0.04 0.14 0.14 1 1003.7
20260505084502 55 197 7.0 16.0 0.08 0.14 0.14 1 1004.1
20260505083058 56 199 9.0 14.0 0.10 0.14 0.14 1 1005.0
20260505081555 55 203 6.0 10.0 0.09 0.12 0.12 1 1005.0
20260505080054 55 202 3.0 9.0 0.08 0.10 0.10 1 1004.7
20260505074551 55 209 4.0 13.0 0.04 0.06 0.06 1 1005.4
20260505073058 55 217 6.0 9.0 0.04 0.04 0.04 1 1005.9
20260505071537 54 360 5.0 9.0 0.03 0.03 0.03 1 1005.4
20260505070033 54 267 0.0 6.0 0.02 0.02 0.02 1 1005.4
20260505064539 55 278 2.0 8.0 0.02 0.02 0.02 1 1006.0
20260505063024 56 306 4.0 10.0 0.00 0.00 0.00 1 1005.6
20260505061530 59 234 3.0 9.0 0.00 0.00 0.00 10 1005.5
20260505060015 63 300 8.0 14.0 0.00 0.00 0.00 54 1005.2
20260505054511 65 318 5.0 10.0 0.00 0.00 0.00 57 1004.5
20260505053007 65 307 5.0 13.0 0.00 0.00 0.00 57 1003.9
20260505051506 65 213 9.0 16.0 0.00 0.00 0.00 57 1002.7
20260505041600 65 204 7.0 11.0 0.00 0.00 0.00 57 1002.2
20260505040056 66 205 7.0 14.0 0.00 0.00 0.00 57 1002.5
20260505034550 66 206 7.0 13.0 0.00 0.00 0.00 57 1002.6
20260505033050 66 219 8.0 12.0 0.00 0.00 0.00 57 1002.7
20260505031604 66 202 6.0 11.0 0.00 0.00 0.00 57 1002.9
20260505030048 66 213 6.0 12.0 0.00 0.00 0.00 57 1002.9
20260505024548 66 208 7.0 12.0 0.00 0.00 0.00 57 1002.8
20260505023052 67 360 7.0 11.0 0.00 0.00 0.00 56 1002.9
20260505021547 67 195 6.0 10.0 0.00 0.00 0.00 56 1002.8
20260505020046 67 196 6.0 11.0 0.00 0.00 0.00 55 1002.6
20260505014546 67 360 5.0 8.0 0.00 0.00 0.00 56 1002.5
20260505013052 67 206 4.0 8.0 0.00 0.00 0.00 56 1002.5
20260505011543 67 202 4.0 8.0 0.00 0.00 0.00 56 1002.4
20260505010044 68 213 5.0 10.0 0.00 0.00 0.00 54 1002.4
20260505004549 68 225 6.0 10.0 0.00 0.00 0.00 54 1002.3
20260505003043 68 189 6.0 10.0 0.00 0.00 0.00 55 1002.1
20260505001543 69 360 7.0 11.0 0.00 0.00 0.00 55 1002.0
20260505000057 69 200 8.0 16.0 0.00 0.00 0.00 55 1002.1
20260504234540 69 203 7.0 13.0 0.00 0.00 0.00 55 1002.3
20260504233040 69 194 7.0 13.0 0.00 0.00 0.00 55 1002.2
20260504231536 69 187 7.0 15.0 0.00 0.00 0.00 56 1002.8
20260504230038 69 205 6.0 15.0 0.00 0.00 0.00 57 1003.2
20260504224534 70 214 9.0 14.0 0.00 0.00 0.00 53 1003.4
20260504223033 70 205 9.0 16.0 0.00 0.00 0.00 53 1003.4
20260504221540 70 213 9.0 21.0 0.00 0.00 0.00 53 1003.6
20260504220032 72 211 10.0 23.0 0.00 0.00 0.00 49 1003.6
20260504214534 73 201 12.0 21.0 0.00 0.02 0.00 46 1003.5
20260504213032 74 227 13.0 20.0 0.00 0.02 0.00 42 1003.0
20260504211528 74 219 11.0 18.0 0.00 0.02 0.00 43 1003.0